This is the latest recevied weather packets stored in our database for station/object KC0RKM-13. If no packets are shown the sender has not sent any weather packets the latest 10 day(s).
| Time | Temp. | Humidity | Pressure | Rain* | Wind** | Luminosity | Snow |
|---|---|---|---|---|---|---|---|
| 1788042004 | 36.11° C | 38% | 1010.6 hPa | 0 mm | - | - | - |
| 1788041403 | 36.11° C | 37% | 1010.5 hPa | 0 mm | - | - | - |
| 1788040803 | 36.11° C | 37% | 1010.5 hPa | 0 mm | - | - | - |
| 1788040203 | 36.11° C | 36% | 1010.8 hPa | 0 mm | - | - | - |
| 1788039604 | 36.11° C | 38% | 1010.8 hPa | 0 mm | - | - | - |
| 1788039004 | 36.11° C | 37% | 1010.8 hPa | 0 mm | - | - | - |
| 1788038404 | 36.11° C | 38% | 1010.8 hPa | 0 mm | - | - | - |
| 1788037803 | 36.11° C | 37% | 1011 hPa | 0 mm | - | - | - |
| 1788037203 | 36.11° C | 38% | 1011.2 hPa | 0 mm | - | - | - |
| 1788036603 | 35.56° C | 38% | 1011.2 hPa | 0 mm | - | - | - |
| 1788036004 | 36.11° C | 38% | 1011.1 hPa | 0 mm | - | - | - |
| 1788035403 | 35.56° C | 38% | 1011.4 hPa | 0 mm | - | - | - |
| 1788034804 | 35.56° C | 37% | 1011.8 hPa | 0 mm | - | - | - |
| 1788034203 | 35.56° C | 38% | 1011.8 hPa | 0 mm | - | - | - |
| 1788033603 | 36.11° C | 37% | 1011.8 hPa | 0 mm | - | - | - |
| 1788033003 | 35.56° C | 38% | 1011.9 hPa | 0 mm | - | - | - |
| 1788032403 | 35° C | 37% | 1012.2 hPa | 0 mm | - | - | - |
| 1788031804 | 35° C | 39% | 1012.3 hPa | 0 mm | - | - | - |
| 1788031203 | 35° C | 40% | 1012.5 hPa | 0 mm | - | - | - |
| 1788030604 | 35° C | 39% | 1012.5 hPa | 0 mm | - | - | - |
| 1788030004 | 35° C | 37% | 1012.8 hPa | 0 mm | - | - | - |
| 1788029404 | 34.44° C | 40% | 1012.9 hPa | 0 mm | - | - | - |
| 1788028803 | 34.44° C | 39% | 1012.9 hPa | 0 mm | - | - | - |
| 1788028203 | 34.44° C | 38% | 1013.1 hPa | 0 mm | - | - | - |
| 1788027603 | 33.89° C | 40% | 1013.4 hPa | 0 mm | - | - | - |
* Rain latest hour (hover to see other rain measurements)
** Current wind speed in m/s (hover to see current wind gust speed)